Wind_Speed
25 23 27 24 23 23 19 8 9 11 5 9 11 7 15 23 24 18 18 21 21 21 22 21 19 18 18 18 18 18 18 16 15 15 19 19 17 16 13 13 9 8 7 7
28 34 28 24 23 25 20 15 13 5 5 14 5 21 10 16 26 21 20 22 22 22 24 23 20 17 17 18 18 19 18 18 18 17 18 14 13 16 13 12 8 6 5 6
34 34 26 27 26 26 26 24 12 7 9 18 18 24 22 24 17 19 16 19 21 24 25 23 20 19 16 15 17 17 18 19 18 20 21 24 17 17 14 10 8 5 5 6
36 31 31 28 30 26 27 20 17 20 9 11 12 14 29 23 22 22 18 21 22 24 24 22 19 18 15 13 17 18 18 19 20 20 22 25 23 19 13 11 8 5 4 5
43 36 34 36 30 28 29 21 18 19 14 12 10 13 11 23 18 22 24 23 21 24 25 24 19 21 21 18 16 19 20 19 21 20 22 27 25 19 15 12 8 5 3 5
38 33 35 36 32 29 25 24 19 18 20 19 18 18 21 33 22 25 19 25 23 23 24 25 21 20 21 22 19 21 23 22 21 22 22 27 25 22 17 15 10 7 5 4
37 39 36 35 36 31 31 26 17 17 17 14 21 20 12 20 5 16 23 24 22 23 23 25 27 23 22 24 23 22 24 24 23 25 25 28 28 27 25 19 13 10 9 8
37 38 40 37 41 38 35 34 27 13 13 18 22 23 18 15 19 6 13 19 20 20 22 24 29 25 23 25 25 24 23 25 24 24 26 29 31 28 25 21 17 12 9 8
38 44 29 38 36 38 39 36 34 34 30 18 23 26 22 21 13 14 14 13 12 24 18 21 26 30 24 25 29 26 22 25 26 23 28 31 34 32 27 22 20 15 13 11
38 33 37 34 37 38 43 31 35 37 21 14 27 16 16 5 18 19 17 16 11 13 9 13 27 27 29 26 28 29 25 24 25 25 27 31 35 35 32 28 24 20 17 14
38 35 32 37 41 44 39 42 40 32 34 16 15 20 22 27 12 20 21 21 16 7 5 10 23 25 26 31 28 30 28 23 28 27 27 31 34 37 35 32 29 24 21 18
27 24 33 33 35 40 42 39 38 29 30 30 33 28 25 7 21 21 22 16 13 9 6 1 14 21 24 28 30 27 28 26 25 28 27 30 33 37 38 36 33 28 25 22
14 27 21 30 33 43 46 39 36 36 32 31 22 32 19 21 8 15 19 20 18 10 8 4 12 16 21 26 29 28 27 29 23 28 30 30 33 35 39 38 36 33 30 26
19 21 33 31 25 37 41 43 39 38 38 33 34 31 18 15 15 23 20 12 9 14 8 8 3 13 19 25 28 28 30 30 28 26 33 33 32 35 37 40 39 38 34 31
15 21 24 40 32 16 35 35 35 41 39 37 29 28 23 15 17 23 10 11 11 8 10 13 7 6 10 22 27 30 30 31 29 26 31 36 34 33 36 39 41 41 39 36
15 16 19 28 31 20 18 34 34 40 33 35 35 26 12 3 26 14 22 7 8 12 22 20 10 7 9 11 26 29 32 31 33 30 25 29 36 35 35 37 40 42 43 42
14 18 14 25 26 18 29 19 32 32 28 27 33 11 6 16 12 12 14 14 15 15 16 25 19 13 15 15 16 23 34 30 33 31 25 24 28 37 37 36 39 41 42 44
12 10 12 21 20 16 23 20 12 14 13 9 9 12 5 14 8 12 12 9 11 13 17 15 18 19 14 22 19 19 22 34 30 31 28 26 24 29 35 38 39 38 40 43
10 13 13 15 20 16 21 12 5 28 9 13 16 13 9 9 3 8 11 13 20 20 20 18 20 24 23 22 22 22 22 25 30 29 31 30 27 25 30 37 40 39 41 40
14 13 11 17 19 13 7 10 8 4 13 4 12 22 20 16 7 7 11 16 22 22 22 24 24 22 24 22 22 23 25 24 29 31 31 31 33 29 28 27 31 37 41 42
16 14 18 20 20 7 8 11 11 8 6 17 13 11 17 19 16 18 15 13 18 22 25 25 26 26 26 24 22 22 23 25 25 30 32 33 33 33 32 33 33 31 33 39
16 15 16 20 25 8 4 4 15 6 6 8 12 20 21 17 16 23 21 19 20 20 20 25 27 27 28 28 24 21 24 25 27 28 31 31 33 34 36 37 37 39 37 35
6 7 6 7 4 4 2 2 8 16 8 6 5 8 11 16 14 16 17 17 15 18 21 23 23 21 23 27 24 24 24 30 27 29 30 31 31 33 35 40 42 42 42 40
6 2 4 2 11 4 4 8 6 6 5 5 5 10 13 14 14 15 18 18 17 17 17 19 21 21 21 23 24 22 23 29 30 30 32 32 33 33 35 35 39 44 44 43
5 5 4 1 3 1 7 3 4 5 3 3 9 9 11 12 14 15 16 18 19 21 21 21 22 21 20 24 24 22 26 31 34 32 34 34 33 32 30 29 31 35 40 41
4 4 6 8 5 7 6 6 6 14 18 8 9 16 14 13 14 15 17 18 16 18 20 23 20 20 20 18 24 24 28 41 37 33 34 34 33 30 27 25 24 27 33 38
Wind_Direction
226 233 233 232 232 246 271 220 215 182 186 237 267 207 221 203 190 177 185 185 187 192 191 199 195 203 201 196 191 195 184 171 169 162 159 148 148 137 164 131 119 99 86 77
225 229 228 233 238 242 245 248 179 214 281 196 283 218 230 160 198 186 181 195 185 189 192 203 201 209 211 204 196 201 197 180 175 171 166 149 133 150 177 141 132 119 115 89
225 227 227 231 237 243 246 248 213 260 218 229 233 188 180 175 186 190 187 196 195 191 195 205 204 211 214 208 205 205 204 192 183 182 178 159 166 176 164 154 151 136 103 88
229 229 228 227 234 235 244 240 239 210 185 220 215 217 189 184 187 192 193 194 197 195 200 210 205 210 220 209 199 206 208 199 197 197 184 167 188 183 175 178 160 140 124 107
230 226 226 231 227 231 240 241 240 249 263 267 200 259 192 205 186 199 192 198 201 199 198 214 211 210 210 215 200 205 203 203 205 201 194 190 182 174 187 196 170 156 149 112
232 230 228 228 228 228 234 242 241 263 269 247 245 254 178 189 203 197 192 198 202 205 205 214 222 218 217 220 210 205 205 200 204 207 201 192 189 173 196 197 186 178 175 150
228 229 227 226 231 226 226 235 226 238 245 243 233 235 224 165 205 216 189 193 195 209 203 210 224 228 219 220 229 212 203 204 203 209 205 196 197 193 191 193 194 199 188 171
225 227 221 219 224 226 221 221 229 222 241 238 226 242 226 176 167 158 188 192 198 201 209 217 221 234 232 222 232 227 209 205 204 209 210 200 204 208 200 193 198 201 202 192
223 234 224 223 222 223 230 220 225 239 235 255 248 222 228 152 183 179 183 209 196 190 213 231 230 238 250 235 224 234 222 212 207 208 214 205 206 208 208 202 204 207 209 198
228 242 228 224 222 226 228 226 224 234 250 245 256 242 243 320 200 199 189 185 187 194 206 224 234 242 252 259 236 227 234 218 216 209 214 210 206 211 207 208 211 207 213 218
221 235 235 222 216 222 220 225 231 233 236 235 248 252 221 239 217 216 199 182 170 134 232 210 221 236 249 253 254 226 230 229 220 214 215 211 209 211 213 210 215 215 215 223
210 231 236 236 226 220 221 221 224 229 251 232 252 263 176 210 210 180 171 172 173 154 97 256 175 225 238 247 251 232 228 238 223 222 221 216 213 213 217 213 214 219 222 219
214 224 241 242 244 216 216 217 224 226 232 245 247 247 200 209 85 152 166 170 189 187 204 66 175 196 229 242 241 239 237 238 235 224 223 222 218 217 218 220 219 219 226 226
218 232 228 237 243 204 205 216 217 222 229 226 245 240 232 140 187 209 212 172 163 205 192 120 357 196 214 239 248 241 241 240 244 230 227 226 224 222 222 223 225 224 225 230
216 233 234 234 247 254 211 216 224 226 234 232 231 230 247 214 197 120 111 147 139 171 195 185 147 282 237 227 246 253 247 248 248 248 234 231 229 228 226 227 227 229 229 231
218 229 243 247 239 248 267 215 211 220 224 228 232 236 285 327 176 185 206 152 143 215 227 207 214 243 244 273 235 248 252 250 250 253 252 239 235 234 232 231 232 232 233 235
219 228 251 245 230 218 225 238 206 217 220 227 228 218 205 133 116 102 144 163 198 233 257 241 220 226 276 262 252 251 247 249 245 247 253 249 240 238 237 237 238 236 236 237
225 250 246 243 230 229 212 221 212 176 175 176 180 205 189 158 107 174 188 208 230 245 244 262 254 241 260 272 257 242 256 247 241 241 244 251 242 238 237 240 241 242 242 242
211 228 237 246 237 232 212 187 221 223 191 196 204 211 221 166 153 234 237 249 254 264 266 247 244 241 248 253 264 258 246 248 243 237 241 243 245 240 238 237 241 243 245 246
219 233 250 242 254 218 254 166 164 300 189 217 222 229 240 237 162 235 249 257 269 272 260 266 258 249 239 249 248 247 252 244 238 239 239 242 246 249 247 249 247 245 246 249
212 217 223 232 247 119 220 263 256 250 193 217 243 259 252 252 261 265 259 258 265 266 262 262 265 264 255 248 251 248 252 253 239 240 242 241 243 245 247 246 247 248 250 251
194 201 223 235 255 232 209 204 187 235 175 147 202 227 243 246 249 254 266 265 265 266 265 267 269 270 263 253 253 246 247 246 248 237 240 242 241 246 247 248 247 246 247 249
111 70 57 54 110 39 17 154 161 202 238 228 230 235 230 239 243 250 257 265 269 272 273 274 269 268 255 253 248 248 252 249 246 241 237 241 245 247 250 250 251 249 249 248
98 272 86 46 101 49 52 68 111 164 194 190 211 234 243 247 251 259 265 268 278 278 280 284 284 278 261 244 241 246 253 253 248 244 238 241 246 254 257 257 255 253 249 250
4 10 311 178 202 4 110 170 207 268 254 265 218 218 237 253 264 268 278 280 278 280 284 288 286 285 263 248 241 239 245 254 242 243 245 246 252 255 260 262 260 257 253 251
94 75 7 323 308 282 315 281 282 257 252 242 284 247 239 250 260 273 278 284 288 289 284 277 280 284 279 257 245 238 240 246 242 243 245 247 250 252 256 261 262 260 253 251
Height
3148 3151 3149 3151 3152 3149 3152 3151 3156 3158 3157 3164 3169 3169 3170 3164 3169 3171 3174 3174 3176 3178 3180 3181 3182 3184 3186 3189 3193 3195 3197 3199 3201 3204 3206 3208 3211 3214 3216 3218 3220 3221 3221 3221
3146 3142 3146 3149 3149 3148 3149 3150 3152 3155 3157 3156 3159 3164 3155 3155 3161 3161 3167 3172 3173 3176 3178 3179 3180 3182 3185 3187 3191 3195 3197 3199 3202 3204 3207 3211 3214 3216 3217 3219 3221 3224 3224 3223
3136 3138 3145 3146 3146 3146 3145 3146 3146 3153 3155 3152 3150 3157 3154 3160 3163 3163 3167 3169 3173 3174 3174 3176 3178 3180 3183 3186 3190 3193 3196 3199 3202 3204 3206 3209 3215 3216 3218 3221 3223 3225 3226 3226
3131 3137 3139 3142 3142 3143 3142 3143 3146 3149 3151 3147 3151 3147 3151 3157 3160 3163 3164 3166 3171 3171 3173 3174 3175 3178 3181 3184 3187 3192 3195 3198 3201 3204 3205 3209 3213 3216 3219 3221 3224 3226 3227 3228
3122 3130 3133 3134 3138 3140 3140 3142 3144 3145 3147 3146 3148 3148 3147 3155 3158 3159 3160 3163 3167 3168 3171 3172 3173 3176 3179 3180 3185 3189 3193 3196 3199 3203 3205 3208 3211 3215 3219 3221 3224 3227 3228 3229
3120 3127 3129 3131 3134 3137 3140 3141 3142 3145 3145 3143 3144 3145 3147 3143 3146 3151 3155 3161 3162 3164 3168 3171 3172 3174 3177 3178 3181 3185 3190 3193 3197 3201 3204 3208 3211 3213 3218 3222 3225 3227 3229 3230
3116 3117 3122 3128 3130 3133 3136 3138 3138 3146 3141 3137 3140 3141 3139 3144 3149 3150 3150 3156 3159 3162 3164 3168 3169 3170 3174 3176 3178 3182 3186 3190 3194 3198 3202 3206 3210 3212 3215 3220 3225 3227 3229 3231
3110 3111 3114 3118 3121 3126 3129 3133 3134 3139 3137 3132 3135 3135 3137 3137 3146 3147 3150 3156 3158 3163 3162 3163 3165 3167 3170 3173 3176 3179 3183 3187 3191 3196 3199 3204 3208 3212 3215 3219 3223 3226 3229 3230
3105 3101 3111 3115 3119 3124 3124 3125 3133 3134 3132 3128 3128 3132 3136 3136 3144 3146 3149 3151 3154 3151 3159 3159 3161 3161 3164 3170 3172 3175 3179 3184 3187 3192 3197 3200 3205 3209 3214 3218 3222 3225 3227 3230
3099 3101 3106 3109 3116 3116 3118 3128 3129 3128 3129 3132 3127 3133 3133 3136 3138 3142 3145 3149 3153 3156 3159 3162 3159 3159 3161 3165 3169 3171 3174 3181 3185 3189 3193 3197 3201 3206 3211 3216 3219 3223 3226 3228
3096 3099 3099 3103 3102 3107 3114 3116 3120 3124 3125 3125 3125 3124 3130 3135 3137 3140 3144 3145 3148 3153 3156 3157 3157 3158 3160 3162 3166 3167 3170 3176 3181 3185 3190 3194 3198 3203 3207 3212 3217 3221 3224 3226
3090 3094 3093 3092 3097 3103 3108 3111 3116 3120 3124 3120 3123 3121 3124 3131 3137 3136 3138 3141 3146 3149 3152 3153 3156 3157 3158 3160 3161 3164 3168 3171 3177 3182 3187 3191 3194 3199 3203 3208 3213 3217 3221 3224
3090 3091 3093 3093 3091 3094 3099 3106 3112 3118 3122 3119 3121 3118 3123 3132 3133 3134 3136 3137 3140 3145 3149 3151 3153 3159 3157 3159 3162 3163 3165 3168 3173 3178 3183 3187 3190 3194 3199 3204 3209 3213 3217 3221
3088 3090 3090 3085 3083 3086 3093 3100 3106 3111 3114 3119 3119 3119 3123 3122 3132 3134 3138 3135 3139 3142 3145 3148 3152 3155 3158 3158 3160 3162 3163 3166 3168 3174 3178 3182 3185 3190 3194 3199 3204 3208 3212 3216
3086 3087 3087 3083 3081 3086 3088 3096 3102 3105 3109 3111 3115 3118 3122 3123 3126 3125 3131 3134 3137 3138 3139 3143 3148 3150 3156 3158 3158 3160 3162 3163 3165 3168 3173 3177 3181 3185 3189 3193 3198 3203 3206 3211
3084 3085 3084 3079 3082 3085 3083 3088 3095 3101 3104 3109 3113 3117 3114 3110 3112 3123 3131 3133 3134 3133 3134 3138 3144 3148 3150 3154 3156 3156 3158 3159 3161 3163 3167 3172 3176 3179 3183 3187 3191 3196 3200 3204
3083 3083 3083 3079 3081 3083 3087 3086 3090 3098 3102 3106 3110 3110 3107 3115 3119 3118 3124 3124 3127 3131 3135 3137 3142 3145 3148 3147 3150 3153 3153 3155 3157 3158 3161 3164 3169 3173 3177 3181 3184 3188 3192 3198
3082 3082 3082 3078 3079 3080 3083 3087 3089 3092 3093 3097 3098 3099 3103 3111 3114 3115 3119 3123 3124 3129 3133 3135 3138 3140 3142 3143 3143 3143 3147 3148 3151 3153 3156 3158 3161 3165 3170 3174 3177 3181 3185 3188
3082 3083 3082 3077 3075 3079 3082 3086 3087 3085 3092 3095 3097 3098 3103 3108 3110 3112 3115 3115 3119 3124 3128 3132 3133 3135 3137 3139 3140 3139 3139 3142 3143 3147 3149 3153 3155 3158 3161 3164 3168 3173 3176 3179
3082 3082 3083 3079 3077 3077 3080 3076 3079 3085 3088 3093 3096 3097 3101 3105 3109 3108 3109 3111 3115 3120 3124 3125 3127 3129 3131 3133 3132 3132 3133 3135 3137 3139 3143 3147 3150 3152 3155 3158 3161 3165 3167 3170
3079 3081 3081 3080 3077 3080 3085 3083 3086 3090 3100 3094 3094 3097 3099 3102 3104 3103 3107 3110 3113 3116 3119 3121 3122 3123 3124 3125 3127 3128 3128 3129 3131 3133 3136 3139 3142 3144 3147 3151 3154 3156 3158 3161
3076 3079 3080 3080 3076 3078 3083 3083 3087 3090 3094 3094 3096 3098 3100 3102 3103 3103 3105 3108 3111 3114 3115 3116 3117 3117 3116 3119 3120 3121 3123 3123 3125 3127 3129 3131 3134 3137 3139 3141 3144 3147 3149 3151
3073 3078 3080 3082 3081 3082 3083 3085 3085 3088 3089 3091 3093 3095 3099 3101 3103 3103 3104 3106 3108 3109 3110 3109 3109 3110 3109 3110 3111 3113 3116 3119 3120 3121 3123 3125 3127 3129 3130 3132 3134 3137 3140 3142
3076 3077 3081 3084 3086 3086 3085 3086 3089 3091 3092 3093 3094 3096 3097 3099 3101 3101 3101 3102 3103 3103 3104 3103 3102 3102 3101 3102 3103 3105 3108 3111 3113 3115 3117 3119 3119 3120 3121 3123 3124 3125 3129 3132
3078 3081 3082 3086 3082 3088 3086 3086 3089 3091 3092 3093 3093 3094 3096 3097 3097 3098 3098 3098 3098 3098 3098 3097 3096 3095 3094 3095 3095 3094 3098 3102 3104 3107 3109 3111 3112 3112 3113 3114 3115 3116 3119 3124
3078 3078 3081 3082 3086 3085 3084 3083 3085 3086 3087 3089 3092 3090 3092 3093 3093 3094 3094 3094 3092 3092 3091 3091 3091 3089 3088 3087 3087 3086 3088 3093 3095 3097 3100 3101 3103 3104 3105 3107 3107 3109 3111 3114